• Processing (Info)

  • MPEC 2006-T04 : 2006 SU217

    The following Minor Planet Electronic Circular may be linked-to from your own Web pages, but must not otherwise be redistributed electronically.

    A form allowing access to any MPEC is at the bottom of this page.


    Read MPEC 2006-T03 Read MPEC 2006-T05


    M.P.E.C. 2006-T04                                Issued 2006 Oct. 2, 12:56 UT
    
         The Minor Planet Electronic Circulars contain information on unusual
             minor planets and routine data on comets.  They are published
       on behalf of Commission 20 of the International Astronomical Union by the
              Minor Planet Center, Smithsonian Astrophysical Observatory,
                              Cambridge, MA 02138, U.S.A.
    
                 Prepared using the Tamkin Foundation Computer Network
    
                                  MPC@CFA.HARVARD.EDU
              URL http://cfa-www.harvard.edu/iau/mpc.html  ISSN 1523-6714
    
                                      2006 SU217
    
    Observations:
         K06SL7U* C2006 09 30.22468 00 25 20.73 +07 21 20.0          20.7 V ET004691
         K06SL7U  C2006 09 30.24198 00 25 16.50 +07 20 18.1          20.8 V ET004691
         K06SL7U  C2006 09 30.25929 00 25 12.33 +07 19 17.4          20.5 V ET004691
         K06SL7U tC2006 09 30.30959 00 24 59.99 +07 16 17.1          20.7 V ET004291
         K06SL7U tC2006 09 30.31347 00 24 59.02 +07 16 03.7          20.8 V ET004291
         K06SL7U tC2006 09 30.31733 00 24 58.09 +07 15 49.5          20.7 V ET004291
         K06SL7U  C2006 10 01.17758 00 22 07.19 +06 25 41.1                 ET004291
         K06SL7U  C2006 10 01.18402 00 22 05.73 +06 25 19.5                 ET004291
         K06SL7U  C2006 10 01.18776 00 22 04.90 +06 25 06.6                 ET004291
         K06SL7U  C2006 10 01.19573 00 22 01.76 +06 24 31.2          20.4 R ET004734
         K06SL7U  C2006 10 01.20035 00 22 00.62 +06 24 15.4          19.4 R ET004734
         K06SL7U  C2006 10 01.20497 00 21 59.54 +06 24 00.1          20.4 R ET004734
         K06SL7U  C2006 10 01.20967 00 21 58.38 +06 23 44.3          21.1 R ET004734
         K06SL7U  C2006 10 01.21246 00 21 59.25 +06 23 42.9          20.4 V ET004G96
         K06SL7U  C2006 10 01.21611 00 21 58.42 +06 23 30.2          20.3 V ET004G96
         K06SL7U  C2006 10 01.21974 00 21 57.60 +06 23 18.1          20.7 V ET004G96
         K06SL7U  C2006 10 01.22335 00 21 56.77 +06 23 06.0          20.5 V ET004G96
         K06SL7U  C2006 10 02.04789 00 19 13.71 +05 36 47.0                 ET004J95
         K06SL7U  C2006 10 02.05550 00 19 12.06 +05 36 22.4                 ET004J95
         K06SL7U  C2006 10 02.06387 00 19 10.36 +05 35 54.6          20.5 R ET004J95
         K06SL7U  C2006 10 02.23477 00 18 42.04 +05 27 04.4          20.6 V ET004G96
         K06SL7U  C2006 10 02.23831 00 18 41.25 +05 26 53.0          20.1 V ET004G96
         K06SL7U  C2006 10 02.23962 00 18 41.00 +05 26 49.3          21.6 V ET004291
         K06SL7U  C2006 10 02.24184 00 18 40.53 +05 26 42.0          20.5 V ET004G96
         K06SL7U  C2006 10 02.24335 00 18 40.26 +05 26 38.3          21.3 V ET004291
         K06SL7U  C2006 10 02.24532 00 18 39.78 +05 26 30.5          20.5 V ET004G96
         K06SL7U  C2006 10 02.24714 00 18 39.42 +05 26 25.7          21.0 V ET004291
    
    Observer details:
    291 LPL/Spacewatch II.  Observers T. H. Bressi, M. T. Read, A. F. Tubbiolo.
        1.8-m f/2.7 reflector + CCD.
    691 Steward Observatory, Kitt Peak.  Observer T. H. Bressi.  0.9-m f/3
        reflector + CCD.
    734 Farpoint Observatory.  Observer G. Hug.  Measurer D. Tibbets.  0.7-m
        reflector + CCD.
    G96 Mt. Lemmon Survey.  Observers R. A. Kowalski, E. C. Beshore.  Measurers
        E. C. Beshore, E. J. Christensen, G. J. Garradd, A. R. Gibbs, A. D. Grauer,
        R. E. Hill, R. A. Kowalski, S. M. Larson, R. H. McNaught.  1.5-m reflector
        + CCD.
    J95 Great Shefford.  Observer P. Birtwhistle.  0.40-m f/6.0 Schmidt-Cassegrain
        + CCD.
    
    Orbital elements:
    2006 SU217                                               Earth MOID = 0.0259 AU
    Epoch 2006 Sept. 22.0 TT = JDT 2454000.5                MPC
    M 109.98984              (2000.0)            P               Q
    n   1.00682494     Peri.   38.37587     -0.60535423     +0.79587206
    a   0.9859012      Node   194.38185     -0.74129873     -0.56902035
    e   0.1768646      Incl.    2.67044     -0.28986627     -0.20689009
    P   0.98           H   25.3           G   0.15           U   7
    Residuals in seconds of arc
    060930 691  0.0   0.1+    061001 734  2.0+  0.2+    061002 J95  0.5-  0.1+
    060930 691  0.4-  0.3-    061001 734  0.7+  0.0     061002 J95  0.5+  0.3-
    060930 691  0.3+  0.6+    061001 734  0.3+  0.4+    061002 G96  0.0   0.1-
    060930 291  0.0   0.2-    061001 734  0.9-  0.6+    061002 G96  0.3-  0.1-
    060930 291  0.3-  0.2+    061001 G96  0.4+  0.1+    061002 291  0.9-  0.3-
    060930 291  0.0   0.2-    061001 G96  0.4+  0.2-    061002 G96  0.5+  0.2+
    061001 291  0.0   0.2-    061001 G96  0.6+  0.0     061002 291  0.2+  0.7+
    061001 291  0.3-  0.1-    061001 G96  0.6+  0.1+    061002 G96  0.6+  0.1-
    061001 291  0.1-  0.3-    061002 J95  0.2+  0.3-    061002 291  0.0   0.3+
    
    Ephemeris:
    2006 SU217               a,e,i = 0.99, 0.18, 3                   q = 0.8115
    Date    TT    R. A. (2000) Decl.     Delta      r     Elong.  Phase     V
    2006 10 02    00 19.41   +05 40.6    0.0925   1.093   176.2     3.5    20.7
    2006 10 03    00 16.36   +04 47.4    0.0951   1.095   175.2     4.4    20.8
    2006 10 04    00 13.49   +03 56.9    0.0978   1.098   173.7     5.7    20.9
    2006 10 05    00 10.81   +03 09.2    0.100    1.100   172.0     7.3    21.0
    2006 10 06    00 08.30   +02 24.1    0.103    1.102   170.2     8.8    21.2
    2006 10 07    00 05.95   +01 41.5    0.106    1.104   168.5    10.4    21.3
    2006 10 08    00 03.76   +01 01.4    0.109    1.106   166.8    11.9    21.4
    2006 10 09    00 01.72   +00 23.6    0.112    1.108   165.1    13.4    21.6
    2006 10 10    23 59.82   -00 12.0    0.115    1.110   163.4    14.9    21.7
    2006 10 11    23 58.07   -00 45.5    0.119    1.112   161.8    16.3    21.8
    2006 10 12    23 56.45   -01 16.9    0.122    1.113   160.2    17.7    21.9
    2006 10 13    23 54.95   -01 46.3    0.125    1.115   158.7    19.0    22.0
    2006 10 14    23 53.58   -02 13.9    0.128    1.117   157.2    20.3    22.1
    2006 10 15    23 52.33   -02 39.6    0.132    1.119   155.7    21.5    22.2
    2006 10 16    23 51.19   -03 03.6    0.135    1.121   154.3    22.7    22.3
    2006 10 17    23 50.17   -03 26.0    0.139    1.122   152.9    23.9    22.4
    2006 10 18    23 49.25   -03 46.8    0.143    1.124   151.6    25.0    22.5
    2006 10 19    23 48.44   -04 06.0    0.146    1.126   150.2    26.1    22.6
    2006 10 20    23 47.73   -04 23.9    0.150    1.127   149.0    27.1    22.7
    2006 10 21    23 47.11   -04 40.3    0.154    1.129   147.7    28.1    22.7
    2006 10 22    23 46.59   -04 55.4    0.158    1.130   146.5    29.1    22.8
    
    Timothy B. Spahr             (C) Copyright 2006 MPC           M.P.E.C. 2006-T04
    

    Read MPEC 2006-T03 Read MPEC 2006-T05


    MPEC number:

    Enter an MPEC number in one of the following forms:

    • 1997-B01 (the full form)
    • J97B01 (the packed version of the full form)
    • B01 (the abbreviated form)